Starlink 34486

operational
NORAD ID: 64597 Int'l Des: 2025-137 Owner: SPXS Country: US Constellation: starlink
LEOCIRCULAR

About Starlink 34486

Description loading...

Live Position

Loading 3D Globe...

Upcoming Passes

Altitude History

Altitude vs Time

uPlot chart will show altitude changes over time

Two-Line Element Set

1 64597U 25137D 26102.48618823 .00007832 00000-0 27634-3 0 9995
2 64597 53.1591 178.6525 0001145 93.5776 266.5355 15.30192904 45903
Epoch: Apr 12, 2026 • Age: 17 hours

Current Status

Altitude 482.2 km
Velocity 7.62 km/s
Sub-Earth Point -23.32°S, 108.98°E
Launch Date Jun 25, 2025
Age 0.7 years
Type internet

Technical Details

Classification Payload
Mass 575.00 kg
Dry Mass 530.00 kg
Total Mass 575.00 kg
Length 0.30 m
Diameter 4.10 m
Span 29.00 m
Shape Box + pan
Manufacturer SPXS
Bus Type Starlink V2MO
Phase Status In Orbit
Owner/State SPXS/US

Large Constellations

Loading constellations...